Location: Unspecified
(43.4354°N, 0.0000°E)
Time: 10:00:30
(UTC+00:00)

Courier 1B - Pass Details

Date: 19 June 2019
Orbit: 962 x 1209 km, 28.3° (Epoch: 17 October)

Event Time Altitude Azimuth Distance (km) Brightness Sun altitude
Rises 19:15:03 0° 222° (SW) 3,910 10.8 3.6°
Reaches altitude 10° 19:18:40 10° 205° (SSW) 2,999 10.0 3.0°
Maximum altitude 19:23:35 19° 163° (SSE) 2,444 9.2 2.3°
Drops below altitude 10° 19:28:38 10° 122° (ESE) 3,103 9.5 1.5°
Sets 19:32:27 0° 106° (ESE) 4,092 10.1 0.9°
